Portada
METAR-TAF:

METAR-TAF

Aeroports :

Rurrenabaque, Bolívia

latitud: 14-28S, longitud: 067-34W, altitud: 204 m

Observació

L'informe es va fer fa 8 hores i 46 minuts, a les 20:00 UTC
Vent 10 kt del Sud
Temperatura 34°C
Humitat 56%
Pressió 1001 hPa
Visibilitat 10 km o més
Escasses núvols a una alçada de 2000 ft
Escasses núvols a una alçada de 2300 ft, Cumulonimbus.
Cel ennuvolat a una alçada de 20000 ft
tempesta a les proximitats

METAR: SLRQ 052000Z 18010KT 9999 VCTS FEW020 FEW023CB BKN200 34/24 Q1001

Hora: 00:46 (04:46 UTC)


TAF: manca

Observacions i pronòstics meteorològics de més de 4000 aeroports (METAR i TAF).

Les estacions disponibles són els punts grocs i vermells al mapa.

Posi el ratolí al punt desitjat per veure el nom de l'estació.

Feu clic per veure les observacions i els pronòstics meteorològics.

Per canviar el mapa: feu clic els botons verds amb una creu de color negre per apropar; al botó verd amb un guió per allunyar la imatge; o en les fletxes verdes per a mapes adjacents.


METAR-TAF: